Informationen zur Loipe auf der Atzenberger Höhe
 
19.01.2019Höhe
ü. NN
ZeitTemperatur (°C)Nieder-
schlag
Luft-
feuchte
Luft-
druck
Wind
StationaktuellMinimumMaximumaktuellMaximum
Aldingen654 m22:26-6,1-10,0 (05:59)-2,0 (14:43)0,0 l/m²92%1016,35,6 km/h (2 Bft) SO14,8 km/h (3 Bft) S-SO (13:07)
Allmannsweiler625 m22:25-9,7-9,7 (22:20)-2,8 (15:25)0,0 l/m²93%1015,60,0 km/h (0 Bft) SO12,9 km/h (3 Bft) SW (13:50)
Allmendingen541 m22:25-9,0-10,2 (07:25)-3,4 (00:35)0,0 l/m²90%1015,90,0 km/h (0 Bft) S-SW16,1 km/h (3 Bft) SO (09:05)
Altshausen574 m22:25-8,4-8,4 (22:14)-2,3 (14:44)0,0 l/m²88%1011,60,0 km/h (0 Bft) W-SW11,3 km/h (2 Bft) N-NO (00:05)
Amstetten-Reutti663 m22:25-7,3-8,0 (06:10)-4,1 (14:40)0,0 l/m²94%1015,50,0 km/h (0 Bft) S-SO27,4 km/h (4 Bft) O (09:45)
Amtzell-Grenis677 m22:25-8,3-8,4 (22:15)-2,1 (14:15)0,0 l/m²88%1016,96,4 km/h (2 Bft) N-NO16,1 km/h (3 Bft) O-SO (00:00)
Aulendorf570 m22:25-8,2-8,2 (22:17)-2,5 (15:13)0,0 l/m²86%1015,00,0 km/h (0 Bft) S-SW14,5 km/h (3 Bft) NO (00:34)
Bad Krozingen233 m22:25-3,7-5,7 (08:50)0,4 (15:35)0,0 l/m²92%1015,30,0 km/h (0 Bft) O6,6 km/h (2 Bft) W-NW (13:25)
Bad Saulgau595 m22:25-7,9-7,9 (22:20)-1,9 (15:15)0,0 l/m²90%1014,41,6 km/h (1 Bft) W-NW12,9 km/h (3 Bft) W (07:00)
Bad Saulgau-Lampertsweiler627 m22:25-7,6-7,6 (22:25)-2,8 (00:00)0,0 l/m²88%1017,80,0 km/h (0 Bft) O-SO14,5 km/h (3 Bft) S-SO (10:50)
Bad Schussenried572 m22:25-6,9-7,1 (20:40)-2,6 (15:10)0,0 l/m²90%1013,80,0 km/h (0 Bft) SW11,3 km/h (2 Bft) O-NO (00:15)
Bergatreute615 m22:25-10,2-10,6 (22:10)-2,0 (14:20)0,0 l/m²94%1015,94,8 km/h (1 Bft) N12,9 km/h (3 Bft) O-NO (00:00)
Biberach (Riss), Boehringer533 m22:20-7,9-8,2 (22:00)-2,9 (00:00)0,0 l/m²94%1013,90,7 km/h (0 Bft) W-NW16,6 km/h (3 Bft) S (13:50)
Biberach (Riss), Realschule553 m22:25-9,2-9,2 (22:05)-3,2 (00:00)0,0 l/m²92%1016,80,0 km/h (0 Bft) O-SO16,1 km/h (3 Bft) W-SW (12:55)
Bodnegg-Rotheidlen677 m22:25-8,0-8,1 (06:20)-2,7 (14:25)0,0 l/m²93%1015,70,0 km/h (0 Bft) W-NW14,5 km/h (3 Bft) O (00:00)
Burgrieden523 m22:25-7,4-7,4 (22:25)-3,2 (00:00)0,0 l/m²87%1015,60,0 km/h (0 Bft) S12,9 km/h (3 Bft) S (17:35)
Burgrieden-Hochstetten510 m22:25-7,8-7,8 (22:20)-2,8 (23:00)0,0 l/m²91%1015,73,2 km/h (1 Bft) SO14,5 km/h (3 Bft) SO (08:15)
Donauwörth411 m22:25-6,6-6,6 (22:25)-0,8 (15:05)0,0 l/m²91%1015,90,0 km/h (0 Bft) O-SO22,5 km/h (4 Bft) O (10:45)
Ebersbach579 m22:25-8,7-8,8 (22:25)-2,6 (00:00)0,0 l/m²93%1016,40,0 km/h (0 Bft) O17,7 km/h (3 Bft) O-NO (00:00)
Ebersbach-Boos605 m22:25-9,1-9,1 (22:25)-2,5 (15:15)0,0 l/m²93%1016,30,0 km/h (0 Bft) O-SO22,5 km/h (4 Bft) O (00:05)
Ebersbach-Menzenweiler661 m22:25-6,9-6,9 (21:55)-3,1 (15:05)0,0 l/m²95%1016,16,4 km/h (2 Bft) O-NO29,0 km/h (5 Bft) O-NO (00:00)
Ehingen535 m22:25-8,5-8,5 (22:25)-3,7 (00:50)0,0 l/m²87%1015,80,0 km/h (0 Bft) W-SW12,8 km/h (3 Bft) W-SW (08:50)
Erlenmoos645 m22:25-9,2-9,2 (22:20)-2,6 (15:15)0,0 l/m²85%1015,80,0 km/h (0 Bft) O-NO0,0 km/h (0 Bft) W (00:00)
Ertingen569 m22:30-7,4-7,4 (22:25)-2,8 (15:20)0,0 l/m²90%1015,30,0 km/h (0 Bft) O-SO12,9 km/h (3 Bft) N-NO (07:10)
Friedrichshafen405 m22:25-5,2-5,2 (22:25)2,1 (15:25)0,0 l/m²88%1015,88,0 km/h (2 Bft) N-NO12,9 km/h (3 Bft) O (23:10)
Günzburg443 m22:25-7,0-7,1 (21:20)-2,2 (15:09)0,0 l/m²89%1013,20,0 km/h (0 Bft) W14,5 km/h (3 Bft) O-SO (09:25)
Höchsten802 m22:25-6,0-7,7 (08:35)-4,1 (14:50)0,0 l/m²93%1013,50,0 km/h (0 Bft) SO38,6 km/h (5 Bft) N-NO (00:35)
Horgenzell618 m22:25-5,1-5,2 (03:50)-3,7 (00:00)0,0 l/m²90%1013,48,0 km/h (2 Bft) O-NO19,3 km/h (3 Bft) NO (00:25)
Hoßkirch632 m22:25-8,8-8,8 (22:20)-2,7 (14:25)0,0 l/m²92%1014,70,0 km/h (0 Bft) SW20,9 km/h (4 Bft) O-NO (00:35)
Isny, Am Dreifingerbach695 m22:25-9,9-11,4 (06:00)-2,3 (15:05)0,0 l/m²90%1015,88,0 km/h (2 Bft) O8,0 km/h (2 Bft) O (22:25)
Isny, Weidachweg706 m22:25-11,0-11,7 (08:20)-1,3 (14:10)0,0 l/m²89%1017,33,2 km/h (1 Bft) O11,3 km/h (2 Bft) SW (02:20)
Kappel-Grafenhausen163 m22:20-3,4-4,9 (08:20)2,4 (14:45)0,0 l/m²90%1013,10,0 km/h (0 Bft) N6,4 km/h (2 Bft) N-NO (10:25)
Kirchberg an der Iller584 m22:25-8,2-8,3 (22:15)-3,2 (23:00)0,0 l/m²88%1005,40,0 km/h (0 Bft) SO8,0 km/h (2 Bft) S-SW (01:55)
Kißlegg-Staibshof709 m22:25-7,1-7,2 (08:10)-1,4 (15:20)0,0 l/m²96%1015,50,0 km/h (0 Bft) N-NO11,3 km/h (2 Bft) O-NO (00:00)
Kressbronn398 m22:28-4,9-5,1 (07:56)-0,4 (14:52)0,0 l/m²84%1014,50,0 km/h (0 Bft) NO12,9 km/h (3 Bft) NO (01:08)
Kreuzthal-Steinberg-Alpe930 m22:10-6,1-10,0 (08:00)2,6 (12:50)0,0 l/m²100%1015,00,4 km/h (0 Bft) O13,7 km/h (3 Bft) W-NW (00:00)
Kreuzthal-Steinberggipfel1040 m22:20-3,6-8,9 (07:50)0,1 (14:10)-84%1015,011,9 km/h (3 Bft) SW22,7 km/h (4 Bft) O-SO (00:40)
Kristberg im Montafon (AT)1425 m22:25-8,2-9,5 (05:20)3,1 (12:15)0,0 l/m²70%1015,33,2 km/h (1 Bft) N12,9 km/h (3 Bft) N (09:00)
Laupheim500 m22:25-7,4-7,4 (22:20)-3,2 (00:00)0,0 l/m²90%1015,14,8 km/h (1 Bft) SW14,5 km/h (3 Bft) S-SW (12:20)
Lindau-Insel420 m22:25-4,9-6,2 (08:30)1,4 (14:45)0,0 l/m²85%1014,93,2 km/h (1 Bft) N11,3 km/h (2 Bft) W (13:55)
Lindau-Stadt412 m22:25-5,5-6,8 (07:45)-0,4 (11:50)0,0 l/m²86%1015,24,8 km/h (1 Bft) NO9,7 km/h (2 Bft) N (01:10)
Maierhöfen im Allgäu733 m22:30-14,3-15,2 (08:10)1,6 (13:30)0,0 l/m²88%1017,00,0 km/h (0 Bft) SW4,8 km/h (1 Bft) O (01:45)
Maselheim-Sulmingen548 m22:25-8,9-8,9 (22:25)-3,7 (23:00)0,0 l/m²92%1017,23,2 km/h (1 Bft) O-SO12,9 km/h (3 Bft) O (23:05)
Mietingen-Baltringen528 m22:25-8,3-8,3 (22:25)-3,3 (00:00)0,0 l/m²88%1017,63,2 km/h (1 Bft) W12,9 km/h (3 Bft) SO (08:20)
Mindelheim-Apfeltrach620 m22:26-13,3-13,3 (22:19)-2,3 (14:59)0,2 l/m²88%1017,00,0 km/h (0 Bft) S6,4 km/h (2 Bft) NO (06:59)
Neresheim552 m22:00-6,1-6,1 (22:00)-3,8 (15:33)0,0 l/m²92%1012,20,0 km/h (0 Bft) S15,1 km/h (3 Bft) O-SO (09:22)
Neukirch570 m22:25-7,3-7,4 (07:10)-0,8 (13:00)0,0 l/m²92%1015,96,4 km/h (2 Bft) NO9,7 km/h (2 Bft) NO (23:30)
Ochsenhausen, Birkenstraße613 m22:25-10,7-10,7 (22:05)-3,5 (14:15)0,0 l/m²84%1016,43,2 km/h (1 Bft) O11,3 km/h (2 Bft) O-NO (08:05)
Ochsenhausen, Unt. Wiesen575 m22:25-10,6-10,6 (22:00)-3,7 (00:00)0,0 l/m²91%1017,39,7 km/h (2 Bft) S14,5 km/h (3 Bft) S-SO (08:05)
Ostrach619 m22:25-8,8-8,8 (22:15)-1,3 (14:40)0,0 l/m²92%1014,10,0 km/h (0 Bft) S-SO17,7 km/h (3 Bft) N-NO (23:00)
Ravensburg428 m22:25-6,1-6,1 (22:25)-0,4 (15:10)0,0 l/m²90%1015,08,0 km/h (2 Bft) N16,1 km/h (3 Bft) N-NO (01:45)
Ravensburg-Wernsreute511 m22:25-7,0-7,1 (22:25)-1,7 (15:25)0,0 l/m²91%1017,88,0 km/h (2 Bft) N22,5 km/h (4 Bft) N-NO (23:30)
Reichenbach an der Fils343 m22:25-5,9-5,9 (22:25)-1,8 (11:20)0,0 l/m²84%1017,314,5 km/h (3 Bft) SO24,1 km/h (4 Bft) O (20:10)
Reinstetten559 m22:25-10,8-10,8 (22:15)-3,2 (00:00)0,0 l/m²91%1016,34,8 km/h (1 Bft) S-SW17,7 km/h (3 Bft) SO (09:35)
Riedlingen530 m22:25-7,7-7,7 (22:20)-3,2 (15:25)0,0 l/m²91%1015,60,0 km/h (0 Bft) O-NO12,9 km/h (3 Bft) O-NO (00:45)
Schemmerhofen520 m22:25-8,7-8,7 (22:20)-3,0 (00:00)0,0 l/m²91%1015,40,0 km/h (0 Bft) SW12,9 km/h (3 Bft) N-NO (04:00)
Silbertal im Montafon (AT)884 m22:25-7,8-9,2 (06:40)-4,6 (14:50)0,0 l/m²90%1017,60,0 km/h (0 Bft) SO3,2 km/h (1 Bft) S-SO (02:00)
Tettnang466 m22:25-5,3-5,9 (07:35)-0,5 (14:55)0,0 l/m²86%1014,09,7 km/h (2 Bft) NO14,5 km/h (3 Bft) O (01:05)
Tuttlingen662 m22:25-7,1-9,6 (05:10)-3,9 (14:35)0,0 l/m²89%1015,61,6 km/h (1 Bft) O-SO11,3 km/h (2 Bft) O-SO (14:40)
Ummendorf547 m22:25-9,9-9,9 (22:00)-3,4 (01:30)0,0 l/m²89%1016,84,8 km/h (1 Bft) S-SO16,1 km/h (3 Bft) SW (13:05)
Ummendorf-Fischbach558 m22:25-10,9-10,9 (22:25)-3,9 (01:25)0,0 l/m²89%1017,30,0 km/h (0 Bft) S-SO14,5 km/h (3 Bft) O-NO (01:35)
Waldburg707 m22:25-7,8-7,8 (22:25)-3,2 (13:05)0,0 l/m²92%1015,30,0 km/h (0 Bft) N14,5 km/h (3 Bft) N (00:15)
Waltenhofen im Allgäu720 m22:25-13,2-13,7 (07:35)-0,8 (13:35)0,2 l/m²89%1016,40,0 km/h (0 Bft) S-SW4,8 km/h (1 Bft) S-SW (11:55)
Weingarten500 m22:25-8,0-8,0 (22:25)-1,5 (14:25)0,0 l/m²89%1015,50,0 km/h (0 Bft) O-NO8,0 km/h (2 Bft) O-NO (00:55)
Winterlingen785 m22:00-6,8-10,0 (07:00)-3,9 (16:00)0,0 l/m²96%1013,65,8 km/h (2 Bft) S7,2 km/h (2 Bft) S-SO (10:40)

niederschlagsdatenbank | info | login - erfassung

Sollten Sie Interesse haben, an der Niederschlagsdatenbank teilzunehmen, finden Sie > hier < weitere Informationen.
Datum: . . Kalender
Anmerkung:0,0 = nicht messbarer Niederschlag
 -  = kein Niederschlag
 k  = kumulierter Niederschlag

< 15.01.201917.01.2019 >


Niederschlagswerte vom 16.01.2019    -    derzeit 103 Stationen

Die Niederschlagswerte des gewählten Tages lassen sich durch Klicken auf das Datum sortieren.
Die Angaben sind in l/m².

Station13.01.14.01.15.01.16.01.17.01.18.01.19.01.Bemerkung 16.01.
Aichstetten-Nestbaum-------
Albbruck 38,54,8--3,2--
Am Morgen Hochnebel, später sonnig +4°C Nachts -2°C
Allmendingen23,53,5-----
Amstetten-Reutti31,02,0--1,60,8-
Schneehöhe: 17 cm
Aulendorf12,03,2--0,7--
Schneehöhe: 7 cm
Aulendorf-Blönried12,02,5--1,0--
Aulendorf-Zollenreute12,5------
Bad Buchau12,02,0--1,5--
Bad Saulgau Walserweg11,52,0--0,0--
Schneehöhe: Reste
Bad Saulgau-Hochberg-------
Bad Schussenried Konradstraße12,41,8--0,3--
Bodennebel
Schneehöhe: 8 cm, durchbrochen
Bad Schussenried Lortzingstrasse13,53,0-----
Bad Schussenried Klosterstraße13,02,0-----
Bad Schussenried Theodor-Storm-Strasse12,82,2-----
Bad Schussenried-Hopferbach13,52,0-----
Bad Schussenried-Schwaigfurt14,51,2--1,0--
Bad Waldsee-Haisterkirch17,31,0--0,8--
-6,5/+2,5°C, nach klarer, kalter Nacht ganztags Sonnenschein, zeitwei [weiterlesen...]
Schneehöhe: 23 cm
Bad Wurzach-Dietmanns-------
Bad Wurzach-Seibranz17,02,0--3,0--
Schneehöhe: 41 cm
Baienfurt16,02,0--2,0--
Balzheim16,01,5--1,0--
Schneehöhe: Reste
Berg-Kleintobel14,82,1-----
Schneehöhe: 6 cm
Biberach Amriswilstrasse14,71,5-----
Biberach Strölinweg32,01,5-----
Biberach Erlenweg-------
Biberach Neue Heimat 5-------
Biberach Mittelbergstraße 914,52,0--1,0--
Biberach-Bergerhausen15,51,5--1,0--
Bierstetten-------
Blaubeuren-Pappelau30,0-3,0----
Schneehöhe: 19 cm
Bühlertal7,0------
Dettingen a. d. Iller-------
Dornstadt-Tomerdingen22,51,6-0,02,50,5-
Dürnau10,02,0--1,0--
Eberhardzell Lilienweg14,01,20,10,00,20,1-
Schneehöhe: 24 cm
Ebersbach-Roßwälden24,00,70,0----
Ehingen Rosenstraße22,03,00,00,01,00,0-
Nebelnässe
Ehingen Zanderstraße-------
Ehingen Schlaufenbühl30,72,7--0,9--
Schneehöhe: unverändert
Ehingen Schillerstraße19,92,0--2,00,0-
8 Uhr: ein herrliches Morgenrot - fast rosa
Ehingen-Herbertshofen-------
Eislingen33,61,30,0-2,80,1-
Erbach-Bach16,02,7--1,5--
Erlenmoos18,23,1--1,2--
Schneehöhe: 26 cm
Füramoos11,75,50,70,00,00,00,0
Gutenzell14,02,0-----
Gutenzell-Hürbel14,0------
Herbertingen Drosselweg11,52,5--1,0--
Nebelauflösung noch am Vormittag-danach bei Temperaturen im Plusberei [weiterlesen...]
Herbertingen Hirschstrasse10,01,0--1,0--
Hochdorf-Schweinhausen16,72,3--1,1--
Hohentengen-Bremen13,02,0--0,2--
Horgenzell-Ringgenweiler17,82,9--4,5--
durchbrochen
Schneehöhe: 10 cm
Hüttisheim15,02,0--1,0--
Illerkirchberg19,31,1--0,9--
Inzigkofen12,23,0--1,5--
Isny33,43,2--1,8--
Schneehöhe: 58 cm
Kirchberg14,02,2--1,2--
Schneehöhe: 13 cm
Kreuzthal-Steinberg-Alpe44,02,10,0-4,80,0-
Schneehöhe: 112 cm
Langenau20,04,51,0-3,50,5-
Langenenslingen12,62,20,0-0,90,1-
Regen Schnee
Schneehöhe: Reste
Leutkirch Unterer Auenweg 2522,01,50,1----
Leutkirch Nachtigallenweg 2825,02,0--5,0--
Schneehöhe: 35cm
Leutkirch-Adrazhofen28,03,0--5,0--
Schneehöhe: 47 cm
Mietingen Seerosenweg 10-------
Mietingen-Walpertshofen-------
Mittelbiberach-Reute14,41,8--1,0--
Schneehöhe: 4 cm, durchbrochen
Moosburg14,51,5--1,5--
Am Nachmittag vielfach sonnig, davor neblig, trüb. Hochnebel. Trocken [weiterlesen...]
Schneehöhe: Reste
Münsingen-Rietheim26,86,0--6,2--
Schneehöhe: 32 cm
Neresheim14,66,1--1,8--
Schneehöhe: F
Oberdischingen---16,8 k---
Ochsenhausen11,92,8-0,60,3--
Schnee
Schneehöhe: 15 cm
Öpfingen19,02,0--2,0--
Bodennebel
Ostrach Uhlandweg10,52,5--1,0--
Pfaffenhofen-Kadeltshofen11,02,0--1,0--
Pfullendorf Am Schweizersbild -1,0-----
Rangendingen-6,0--4,0--
Ravensburg Bleicherstraße12,02,6-1,3---
Ravensburg-Schmalegg19,51,50,00,01,00,0-
Schneehöhe: 10 cm
Ravensburg-Wernsreute23,02,0--1,6--
Ravensburg-Weststadt21,02,0--2,0--
Riedhausen11,42,6--0,8--
Temp. -4,4°C / +4,9°C, Windböen SW 32,2 km/h
Schneehöhe: Reste
Riedlingen-Neufra-------
Schelklingen-Gundershofen25,05,0--5,0--
Temp. zw. -5,4°C und +0,5°C. Klar und sonnig. Gegen Abend auch Wolke [weiterlesen...]
Schneehöhe: 24 cm
Schemmerberg24,02,0-0,50,5--
Schwörstadt36,23,2-----
Sigmaringendorf12,22,7--1,4--
Tuttlingen-Möhringen Eßlinger Straße17,6---0,4--
Ulm    neu  -30,01,80,0-1,50,0
Ummendorf Tulpenweg19,02,00,0-0,9--
Schneehöhe: Reste
Ummendorf Friedrich-Schiller-Str.-------
Uttenweiler-Ahlen12,02,0--1,2--
Vöhringen (Schwarzwald)16,0-3,06,03,0--
Waldburg19,54,5---2,0-
Wangen-Atzenberg-------
Wangen-Bergerhöhe31,93,8--2,2--
Schneehöhe: 45 cm
Warthausen An der Schloßhalde -------
Warthausen Schwabenwiesen -------
Warthausen-Barabein14,02,0--2,0--
Weingarten Laurastraße15,02,0--1,5--
- 1,0 ° C um 5.00 Uhr
Schneehöhe: Reste
Weingarten Hoyerstraße-------
Weingarten Marienstraße15,01,5--1,0--
Schneehöhe: Reste
Wolfegg-Veesers-------
Wolpertswende4,90,01,80,40,4--
Regen
Schneehöhe: 3 cm

Stillgelegte Niederschlagsstationen    -    derzeit 46 Stationen

StationLetzte Meldung13.01.14.01.15.01.16.01.17.01.18.01.19.01.Bemerkung 16.01.
Allmannsweiler02.09.2014-------
Aulendorf-Rugetsweiler 25.07.2013-------
Bad Saulgau Willi-Burth-Straße19.09.2011-------
Bad Saulgau Eichendorffweg28.03.2013-------
Bad Saulgau Seewattenstraße 12815.01.2014-------
Bad Saulgau-Lampertsweiler18.02.2015-------
Bad Schussenried-Steinhausen26.09.2012-------
Bad Waldsee-Michelwinnanden31.12.2014-------
Bad Waldsee-Osterhofen06.03.2015-------
Bad Waldsee-Steinach10.11.2013-------
Bad Wurzach-Haidgau07.10.2012-------
Bad Wurzach-Ziegelbach07.11.2014-------
Bergatreute13.02.2012-------
Betzenweiler05.01.2017-------
Burgrieden28.10.2013-------
Burgrieden-Rot18.09.2013-------
Eberhardzell Schillerstraße05.07.2010-------
Ehingen Am Elzengraben17.06.2016-------
Gammertingen16.01.2016-------
Griesingen06.10.2015-------
Günzburg31.12.2010-------
Hoßkirch05.01.2018-------
Ingoldingen-Grodt19.11.2016-------
Kisslegg02.05.2011-------
Krauchenwies-Hausen23.11.2013-------
Kressbronn10.03.2010-------
Leutkirch-Ottmannshofen27.07.2012-------
Leutkirch-Rotis08.05.2016-------
Leutkirch-Wuchzenhofen19.09.2016-------
Mietingen Hangweg 1530.12.2017-------
Mössingen-Bästenhardt21.07.2014-------
Ostrach Heiligenberger Straße19.08.2013-------
Pfullendorf Ringstraße 18.03.2012-------
Ravensburg Olgastraße30.10.2016-------
Seltmans09.04.2013-------
Stuttgart-Bad Cannstatt03.02.2013-------
Stuttgart-Möhringen23.04.2017-------
Stuttgart-Rohr07.11.2012-------
Talheim21.08.2016-------
Tannheim22.10.2017-------
Tettnang-Ramsbach26.03.2011-------
Tuttlingen-Möhringen Belchenstraße01.01.2015-------
Ummendorf Bergstraße23.10.2017-------
Vogt22.05.2015-------
Weingarten Bischof-Sproll-Straße30.06.2011-------
Wilhelmsdorf Riedhauser Straße 28.10.2012-------
Wilhelmsdorf Seefeld20.08.2013-------
Wurmlingen14.10.2016-------
Die Niederschlagswerte des gewählten Tages lassen sich durch Klicken auf das Datum sortieren.
Die Angaben sind in l/m².

Wetterbeobachtungen Legende:

  • Regen
  • Nieselregen
  • Schneeregen
  • Schnee
  • Graupel
  • Eiskörner
  • Hagel
  • Bodennebel
  • Gewitter
  • Nebelnässe
  • Schneegriesel

Grafische Darstellung der Tagesniederschläge vom 16.01.2019

< 15.01.201917.01.2019 >Monats- und Jahresniederschlag


 
wetterstationen
wetterstationen
- derzeit 73 Stationen
niederschlagsdatenbank
wetterstationen
- kartographische Darstellung
niederschlagsdatenbank
niederschlagsstationen
- derzeit 103 Stationen
niederschlagsdatenbank
niederschlagsstationen
- kartographische Darstellung
 
 
Fr. 7.30 Uhr - Sa. 7.30 Uhr (MEZ)
1.Waldburg2,0 l/m²
2.Ulm1,5 l/m²
3.Amstetten-Reutti0,8 l/m²
4.Langenau0,5 l/m²
5.Dornstadt-Tomerdingen0,5 l/m²
6.Eberhardzell
Lilienweg
0,1 l/m²
7.Eislingen0,1 l/m²
8.Langenenslingen0,1 l/m²
9.Kreuzthal-Steinberg-Alpe0,0 l/m²
10.Ehingen
Rosenstraße
0,0 l/m²
11.Füramoos0,0 l/m²
12.Ehingen
Schillerstraße
0,0 l/m²
13.Ravensburg-Schmalegg0,0 l/m²
 
Sa. 19.01.2019 - 7.30 Uhr (MEZ)
1.Kreuzthal-Steinberg-Alpe108 cm
2.Isny54 cm
3.Leutkirch-Adrazhofen45 cm
4.Waldburg40 cm
5.Bad Wurzach-Seibranz39 cm
6.Münsingen-Rietheim34 cm
7.Schelklingen-Gundershofen24 cm
8.Eberhardzell
Lilienweg
19 cm
9.Bad Waldsee-Haisterkirch19 cm
10.Amstetten-Reutti18 cm
11.Ochsenhausen15 cm
12.Horgenzell-Ringgenweiler9 cm
13.Tuttlingen-Möhringen
Eßlinger Straße
8 cm
14.Ravensburg-Schmalegg7 cm
15.Langenenslingen2 cm
16.Ehingen
Schillerstraße
1 cm
17.Ulmalles wieder weg
18.WolpertswendeReste
19.Langenauca 1cm
20.Moosburgstark angezuckert
21.AulendorfReste
22.Öpfingen"Reste"
23.Weingarten
Marienstraße
Reste
24.BalzheimReste
25.Riedhausenr
26.Pfaffenhofen-KadeltshofenReste
27.Bad Saulgau
Walserweg
Reste
28.Weingarten
Laurastraße
Reste
 
  treffpunkt & service
--- Anzeigen --------------------------------
zugriffe:
insgesamt: 40.646.441
aktueller monat: 319.522
heute: 12.434
momentan online: 59
 
 
monatshöchstwert: 653.625
vorheriger monat: 400.931
gestern: 9.684
tageshöchstwert: 45.129
 
wetterwarte süd
 
konradstraße 3
info@wetterwarte-sued.com
roland roth
 
88427 bad schussenried